Location: Unspecified
(0.0000°N, 0.0000°E)
Time: 14:40:43
(UTC+00:00)

Courier 1B - Pass Details

Date: 10 February 2026
Orbit: 962 x 1208 km, 28.3° (Epoch: 16 March)

Event Time Altitude Azimuth Distance (km) Brightness Sun altitude
Exits shadow 04:57:59 13° 333° (NNW) 2,749 9.5 -18.4°
Maximum altitude 05:03:16 28° 26° (NNE) 1,868 9.1 -17.2°
Drops below altitude 10° 05:08:59 10° 83° (E) 2,804 11.0 -15.8°
Sets 05:12:01 0° 95° (E) 3,721 12.3 -15.1°
